EN

Hourly Weather Dzieslawice

Today, 1 November, Sunday

Time Temperature Precipitation Wind Pressure Humidity
00:00 +6°C° 0 mm 1 mps 749 mmHg 88%
01:00 +6°C° 0 mm 1 mps 749 mmHg 89%
02:00 +5°C° 0 mm 1 mps 748 mmHg 90%
03:00 +5°C° 0 mm 1 mps 748 mmHg 91%
04:00 +5°C° 0 mm 1 mps 748 mmHg 92%
05:00 +5°C° 0 mm 1 mps 748 mmHg 92%
06:00 +4°C° 0 mm 2 mps 748 mmHg 92%
07:00 +4°C° 0 mm 2 mps 748 mmHg 92%
08:00 +5°C° 0 mm 2 mps 747 mmHg 85%
09:00 +7°C° 0 mm 2 mps 747 mmHg 78%
10:00 +8°C° 0 mm 2 mps 747 mmHg 71%
11:00 +9°C° 0 mm 2 mps 747 mmHg 66%
12:00 +10°C° 0 mm 2 mps 746 mmHg 62%
13:00 +12°C° 0 mm 2 mps 746 mmHg 58%
14:00 +10°C° 0 mm 2 mps 745 mmHg 61%
15:00 +10°C° 0 mm 2 mps 745 mmHg 65%
16:00 +9°C° 0 mm 2 mps 745 mmHg 68%
17:00 +10°C° 0 mm 1 mps 745 mmHg 69%
18:00 +9°C° 0 mm 1 mps 745 mmHg 69%
19:00 +9°C° 0 mm 1 mps 745 mmHg 70%
20:00 +8°C° 0 mm 2 mps 745 mmHg 72%
21:00 +8°C° 0 mm 2 mps 744 mmHg 74%
22:00 +8°C° 0 mm 2 mps 744 mmHg 77%
23:00 +8°C° 0.2 mm 2 mps 744 mmHg 82%

Tomorrow, 2 November, Monday

Time Temperature Precipitation Wind Pressure Humidity
00:00 +8°C° 0.2 mm 2 mps 744 mmHg 88%
01:00 +9°C° 0.2 mm 2 mps 744 mmHg 93%
02:00 +9°C° 0.1 mm 2 mps 744 mmHg 94%
03:00 +9°C° 0.1 mm 2 mps 744 mmHg 95%
04:00 +9°C° 0.1 mm 2 mps 743 mmHg 95%
05:00 +9°C° 0 mm 2 mps 743 mmHg 95%
06:00 +9°C° 0 mm 2 mps 744 mmHg 94%
07:00 +9°C° 0 mm 2 mps 744 mmHg 93%
08:00 +9°C° 0.1 mm 2 mps 744 mmHg 91%
09:00 +10°C° 0.1 mm 3 mps 744 mmHg 89%
10:00 +10°C° 0.1 mm 3 mps 744 mmHg 87%
11:00 +10°C° 0.1 mm 3 mps 744 mmHg 88%
12:00 +10°C° 0.1 mm 3 mps 744 mmHg 88%
13:00 +10°C° 0.1 mm 3 mps 744 mmHg 89%
14:00 +10°C° 0 mm 3 mps 744 mmHg 89%
15:00 +12°C° 0 mm 2 mps 744 mmHg 89%
16:00 +12°C° 0 mm 2 mps 744 mmHg 89%
17:00 +12°C° 0.1 mm 2 mps 744 mmHg 90%
18:00 +11°C° 0.1 mm 3 mps 744 mmHg 92%
19:00 +11°C° 0.1 mm 3 mps 745 mmHg 93%
20:00 +11°C° 0.4 mm 3 mps 745 mmHg 94%
21:00 +12°C° 0.4 mm 3 mps 745 mmHg 95%
22:00 +12°C° 0.4 mm 3 mps 745 mmHg 96%
23:00 +12°C° 0 mm 3 mps 745 mmHg 96%

Day after tomorrow, 3 November, Tuesday

Time Temperature Precipitation Wind Pressure Humidity
00:00 +12°C° 0 mm 3 mps 745 mmHg 95%
01:00 +13°C° 0 mm 2 mps 745 mmHg 95%
02:00 +13°C° 0 mm 2 mps 745 mmHg 95%
03:00 +12°C° 0 mm 3 mps 745 mmHg 94%
04:00 +12°C° 0 mm 3 mps 745 mmHg 94%
05:00 +12°C° 0 mm 3 mps 745 mmHg 93%
06:00 +13°C° 0 mm 3 mps 746 mmHg 93%
07:00 +13°C° 0 mm 3 mps 746 mmHg 92%
08:00 +14°C° 0 mm 3 mps 746 mmHg 89%
09:00 +14°C° 0 mm 3 mps 746 mmHg 87%
10:00 +15°C° 0 mm 4 mps 747 mmHg 85%
11:00 +15°C° 0.1 mm 4 mps 747 mmHg 85%
12:00 +17°C° 0.1 mm 3 mps 747 mmHg 85%
13:00 +17°C° 0.1 mm 3 mps 747 mmHg 85%
14:00 +16°C° 0 mm 3 mps 748 mmHg 85%
15:00 +16°C° 0 mm 3 mps 748 mmHg 84%
16:00 +14°C° 0 mm 3 mps 748 mmHg 84%
17:00 +13°C° 0 mm 3 mps 749 mmHg 82%
18:00 +12°C° 0 mm 3 mps 749 mmHg 79%
19:00 +12°C° 0 mm 3 mps 750 mmHg 77%
20:00 +12°C° 0 mm 2 mps 750 mmHg 76%
21:00 +12°C° 0 mm 2 mps 750 mmHg 75%
22:00 +12°C° 0 mm 2 mps 750 mmHg 74%
23:00 +12°C° 0 mm 2 mps 750 mmHg 74%

4 November, Wednesday

Time Temperature Precipitation Wind Pressure Humidity
00:00 +12°C° 0 mm 2 mps 751 mmHg 75%
01:00 +10°C° 0 mm 2 mps 751 mmHg 75%
02:00 +10°C° 0 mm 2 mps 751 mmHg 76%
03:00 +10°C° 0 mm 2 mps 751 mmHg 77%
04:00 +10°C° 0 mm 2 mps 751 mmHg 78%
05:00 +9°C° 0.1 mm 2 mps 751 mmHg 79%
06:00 +9°C° 0.1 mm 2 mps 752 mmHg 80%
07:00 +9°C° 0.1 mm 2 mps 752 mmHg 80%
08:00 +9°C° 0.4 mm 2 mps 752 mmHg 82%
09:00 +9°C° 0.4 mm 2 mps 752 mmHg 83%
10:00 +8°C° 0.4 mm 2 mps 752 mmHg 84%
11:00 +8°C° 0.3 mm 2 mps 752 mmHg 84%
12:00 +8°C° 0.3 mm 2 mps 752 mmHg 85%
13:00 +8°C° 0.3 mm 2 mps 752 mmHg 85%
14:00 +8°C° 0.2 mm 2 mps 752 mmHg 85%
15:00 +8°C° 0.2 mm 2 mps 752 mmHg 86%
16:00 +7°C° 0.2 mm 3 mps 752 mmHg 87%
17:00 +7°C° 0.2 mm 2 mps 753 mmHg 87%
18:00 +7°C° 0.2 mm 2 mps 753 mmHg 87%
19:00 +7°C° 0.2 mm 2 mps 753 mmHg 87%
20:00 +7°C° 0.3 mm 2 mps 753 mmHg 87%
21:00 +7°C° 0.3 mm 3 mps 753 mmHg 88%
22:00 +7°C° 0.3 mm 3 mps 754 mmHg 88%
23:00 +7°C° 0.5 mm 3 mps 754 mmHg 89%

5 November, Thursday

Time Temperature Precipitation Wind Pressure Humidity
00:00 +7°C° 0.5 mm 3 mps 754 mmHg 90%
01:00 +7°C° 0.5 mm 3 mps 754 mmHg 91%
02:00 +7°C° 0.5 mm 3 mps 754 mmHg 92%
03:00 +7°C° 0.5 mm 3 mps 754 mmHg 92%
04:00 +7°C° 0.5 mm 3 mps 754 mmHg 93%
05:00 +7°C° 0.3 mm 3 mps 754 mmHg 93%
06:00 +7°C° 0.3 mm 3 mps 754 mmHg 94%
07:00 +7°C° 0.3 mm 3 mps 754 mmHg 94%
08:00 +8°C° 0.1 mm 3 mps 755 mmHg 93%
09:00 +8°C° 0.1 mm 3 mps 755 mmHg 93%
10:00 +8°C° 0.1 mm 3 mps 755 mmHg 93%
11:00 +8°C° 0 mm 3 mps 755 mmHg 92%
12:00 +8°C° 0 mm 3 mps 755 mmHg 91%
13:00 +8°C° 0 mm 3 mps 755 mmHg 90%
14:00 +8°C° 0 mm 3 mps 755 mmHg 90%
15:00 +8°C° 0 mm 3 mps 756 mmHg 91%
16:00 +8°C° 0 mm 2 mps 756 mmHg 91%
17:00 +8°C° 0 mm 2 mps 756 mmHg 91%
18:00 +8°C° 0 mm 2 mps 756 mmHg 91%
19:00 +8°C° 0 mm 2 mps 756 mmHg 91%
20:00 +7°C° 0 mm 2 mps 757 mmHg 92%
21:00 +7°C° 0 mm 2 mps 757 mmHg 92%
22:00 +7°C° 0 mm 2 mps 757 mmHg 92%
23:00 +7°C° 0 mm 2 mps 757 mmHg 92%

6 November, Friday

Time Temperature Precipitation Wind Pressure Humidity
00:00 +6°C° 0 mm 2 mps 757 mmHg 92%
01:00 +5°C° 0 mm 3 mps 757 mmHg 92%
02:00 +5°C° 0 mm 3 mps 757 mmHg 92%
03:00 +5°C° 0 mm 3 mps 757 mmHg 92%
04:00 +5°C° 0 mm 2 mps 757 mmHg 92%
05:00 +4°C° 0 mm 3 mps 757 mmHg 92%
06:00 +4°C° 0 mm 3 mps 757 mmHg 92%
07:00 +4°C° 0 mm 3 mps 757 mmHg 92%
08:00 +5°C° 0 mm 3 mps 757 mmHg 89%
09:00 +7°C° 0 mm 3 mps 757 mmHg 86%
10:00 +8°C° 0 mm 3 mps 757 mmHg 83%
11:00 +9°C° 0 mm 3 mps 757 mmHg 82%
12:00 +9°C° 0 mm 3 mps 757 mmHg 81%
13:00 +10°C° 0 mm 3 mps 757 mmHg 80%
14:00 +9°C° 0 mm 3 mps 757 mmHg 82%
15:00 +9°C° 0 mm 3 mps 757 mmHg 84%
16:00 +9°C° 0 mm 2 mps 756 mmHg 86%
17:00 +8°C° 0 mm 2 mps 756 mmHg 87%
18:00 +8°C° 0 mm 3 mps 757 mmHg 87%
19:00 +8°C° 0 mm 3 mps 757 mmHg 88%
20:00 +8°C° 0 mm 3 mps 757 mmHg 88%
21:00 +8°C° 0 mm 3 mps 757 mmHg 88%
22:00 +8°C° 0 mm 3 mps 757 mmHg 88%
23:00 +8°C° 0 mm 3 mps 756 mmHg 90%
Show more